Location: Hiram
(41.3130°N, 81.1440°W)
Time: 07:28:13
(UTC-05:00)

Daily predictions for brighter satellites

Satellite Brightness Start Highest point End
(mag) Time Altitude Azimuth Time Altitude Azimuth Time Altitude Azimuth
IRS-1A Rocket 4.3 17:22:29 10° SSE 17:28:00 89° W 17:33:33 10° NNW
Cosmos 1346 Rocket 4.2 17:26:19 10° SE 17:29:10 20° E 17:32:00 10° NE
ISS -1.7 17:29:00 10° W 17:31:49 25° NNW 17:34:39 10° NE
Cosmos 1544 Rocket 3.6 17:29:03 10° N 17:33:30 67° E 17:37:56 10° SSE
Cosmos 2278 Rocket 2.4 17:29:10 10° S 17:34:40 56° ESE 17:40:11 10° NNE
PAYLOAD A 3.9 17:30:03 10° SSE 17:34:51 84° ENE 17:39:54 10° NNW
COSMO-SKYMED 1 4.0 17:34:35 10° NE 17:37:46 20° E 17:40:56 10° SE
Cosmos 1975 Rocket 3.9 17:33:36 10° SSW 17:37:48 53° W 17:42:03 10° N
SMAP 3.1 17:34:52 10° SSE 17:39:25 59° ENE 17:44:00 10° N
USA 234 3.3 17:35:39 10° NE 17:42:14 90° NW 17:48:46 10° SW
BREEZE M DEB (TANK) 3.6 17:44:35 10° NW 17:47:27 32° NNE 17:53:28 12° E
SL-8 R/B 3.7 17:43:32 10° WSW 17:48:18 81° NNW 17:52:28 14° ENE
Genesis I 3.4 17:46:46 10° NNW 17:50:35 46° NE 17:54:21 10° SE
Cosmos 864 Rocket 4.5 17:46:27 10° N 17:52:46 78° E 17:59:04 10° S
Cosmos 1536 Rocket 3.5 17:49:58 10° S 17:54:25 70° E 17:58:53 10° NNE
Nadezhda 3 Rocket 4.4 17:50:12 10° SSE 17:55:56 41° E 18:01:45 10° NNE
Cosmos 1833 Rocket 3.4 17:52:12 10° N 17:57:14 32° ENE 18:02:13 10° ESE
Cosmos 1025 Rocket 4.5 17:55:51 10° SE 17:58:45 17° E 17:59:27 17° ENE
NOSS 3-3 (A) 4.0 17:52:41 10° SSW 17:58:51 85° ESE 18:05:32 10° NE
NOSS 3-3 (C) 4.0 17:52:47 10° SSW 17:58:57 85° ESE 18:05:38 10° NE
Cosmos 2082 Rocket 2.6 17:54:45 10° N 18:00:03 39° ENE 18:05:19 10° SE
Cosmos 921 Rocket 3.8 17:57:16 10° SSE 18:00:57 29° E 18:03:30 17° NE
Cosmos 1238 Rocket 2.8 18:00:11 10° SSW 18:03:03 54° W 18:06:06 10° N
YAOGAN 1 2.6 17:58:50 10° SSE 18:03:09 84° WSW 18:07:31 10° NNW
SPOT 3 Rocket 3.7 17:58:39 10° S 18:03:50 78° WSW 18:09:02 10° NNW
MSX 3.8 17:58:24 10° SSE 18:04:06 70° ENE 18:09:50 10° N
CZ-4 R/B 2.3 18:00:37 10° S 18:04:42 54° W 18:08:46 10° NNW
Cosmos 1975 2.7 18:01:23 10° N 18:05:28 76° E 18:09:28 10° SSE
Cosmos 1743 3.6 18:02:26 10° NNE 18:05:49 28° ENE 18:09:10 10° SE
ATLAS 2AS CENTAUR R/B 3.6 17:59:37 10° NW 18:07:33 63° WSW 18:14:55 10° SSE
Cosmos 494 Rocket 4.5 18:02:30 10° NNW 18:07:42 65° WSW 18:12:53 10° S
COSMOS 2487 2.5 18:06:20 10° N 18:09:53 57° ENE 18:13:25 10° SSE
GEOS 3 Rocket 4.3 18:06:32 14° E 18:10:16 32° NE 18:14:47 10° NNW
Cosmos 1500 3.1 18:06:46 10° N 18:10:35 69° E 18:14:25 10° SSE
Cosmos 1484 Rocket 2.8 18:07:59 10° SSE 18:11:37 49° ENE 18:15:13 10° N
Meteor 1-12 Rocket 4.5 18:06:07 10° NNW 18:11:55 79° W 18:17:49 10° S
CZ-2C R/B 3.0 18:07:26 10° S 18:12:23 64° W 18:17:29 10° NNW
MONITOR-E 4.1 18:10:23 10° SSE 18:13:32 68° ENE 18:16:44 10° N
Meteor 1-28 Rocket 4.1 18:15:53 26° E 18:16:23 27° E 18:19:37 10° SSE
Tiangong 1 1.1 18:16:02 10° WSW 18:19:01 62° SSE 18:19:54 39° E
COSMOS 2441 4.3 18:14:53 10° SSE 18:19:45 82° ENE 18:24:40 10° N
Meteor 1-13 Rocket 4.3 18:14:28 10° S 18:20:01 59° E 18:25:44 10° NNE
Cosmos 1455 Rocket 4.3 18:18:23 10° NNW 18:22:35 44° W 18:26:47 10° SSW
SKYMED 2 3.5 18:21:59 11° NNE 18:26:05 66° ESE 18:30:23 10° S
IDEFIX/ARIANE 42P 3.6 18:23:51 10° S 18:28:50 47° W 18:33:50 10° NNW
FALCON 9 R/B 4.1 18:01:59 10° WSW 18:30:00 60° S 18:35:31 21° ESE
BREEZE-M R/B 4.3 18:20:54 10° WSW 18:31:46 70° NNW 18:34:44 28° NE
Delta 2 Rocket 4.4 18:28:23 10° SW 18:31:47 32° S 18:33:18 24° SE
Meteor 2-4 Rocket 3.8 18:31:19 10° SSE 18:36:24 45° E 18:38:54 27° NE
Okean 1-7 Rocket 3.5 18:32:01 10° S 18:36:29 72° E 18:39:56 17° NNE
Meteor 2-9 Rocket 4.4 18:32:34 10° N 18:37:42 41° ENE 18:42:44 10° SE
Cosmos 1934 Rocket 4.0 18:41:19 10° N 18:47:24 55° E 18:53:32 10° SSE
Cosmos 1535 Rocket 4.4 18:44:47 10° N 18:51:07 75° E 18:57:19 10° SSE
NOSS 2-1 (D) 3.2 18:49:05 10° SW 18:52:54 88° WNW 18:53:30 64° NNE
NOSS 2-1 (C) 3.2 18:49:46 10° SW 18:53:35 90° WSW 18:54:09 66° NE
Abrixas 4.0 18:53:06 10° WNW 18:54:52 32° NW 18:54:52 32° NW
Timation 1 Rocket 4.4 18:54:56 10° SSW 19:00:52 76° WNW 19:04:19 27° NNE
Meteor 2-8 Rocket 4.3 18:57:33 10° S 19:03:32 65° E 19:06:35 30° NNE
Cosmos 2239 Rocket 4.5 18:59:26 10° N 19:05:40 83° W 19:11:49 10° S
Cosmos 2297 4.3 19:01:16 10° SW 19:06:47 54° WNW 19:10:21 22° N
BREEZE M DEB (TANK) 2.5 19:02:02 10° WSW 19:08:45 68° NW 19:08:45 68° NW
ISS -0.4 19:07:22 10° NW 19:07:47 11° NNW 19:07:47 11° NNW
NOSS 2-1 (E) 3.6 19:08:25 10° SW 19:12:13 64° WNW 19:12:13 64° WNW
COSMO-SKYMED 1 4.0 19:10:34 13° N 19:14:01 36° WNW 19:17:59 10° SW
NOAA 12 4.2 19:10:20 10° S 19:15:36 75° WSW 19:20:53 10° NNW
Cosmos 1821 Rocket 4.1 19:10:23 10° NNW 19:16:27 71° W 19:22:29 10° S
Cosmos 2278 Rocket 4.2 19:14:41 10° WSW 19:19:06 23° NW 19:23:34 10° N
USA 234 4.3 19:22:16 26° NNE 19:24:46 35° NNW 19:30:31 10° W
Cosmos 1605 Rocket 3.8 19:20:43 10° N 19:27:03 79° E 19:33:14 10° S
CZ-3B DEB 3.9 19:22:54 10° WNW 19:28:00 39° N 19:31:38 30° NNE
METEOR-M 4.4 19:26:04 10° S 19:31:19 64° WSW 19:36:39 10° NNW
Cosmos 2056 Rocket 3.6 19:27:20 10° SSW 19:32:41 74° WNW 19:32:41 74° WNW
Cosmos 1025 Rocket 4.3 19:31:55 10° SSW 19:36:00 38° WNW 19:36:25 37° WNW
Cosmos 1833 Rocket 4.0 19:36:02 10° NW 19:41:11 38° WSW 19:46:19 10° S
NOSS 3-4 (A) 3.8 19:36:29 10° NW 19:43:33 81° WSW 19:45:08 58° SSE
NOSS 3-4 (C) 3.8 19:36:35 10° NW 19:43:39 82° WSW 19:45:09 60° SSE
Cosmos 2082 Rocket 3.9 19:39:05 10° NW 19:43:58 31° WSW 19:48:52 10° SSW
GEOS 3 Rocket 4.4 19:47:43 45° SW 19:48:09 47° WSW 19:53:05 10° NW
